Haines, AK

3:32 PM AKDT on July 25, 2017 (GMT -0800)
Haines

Weather History for PAHN - October, 2013

Change the Weather History Date:

Sunday, October 6, 2013

  Actual Average Record
Temperature  
Mean Temperature 48 °F -  
Max Temperature 54 °F 48 °F 60 °F (1977)
Min Temperature 39 °F 39 °F 31 °F (1974)
Degree Days  
Heating Degree Days 18    
Moisture  
Dew Point 42 °F    
Average Humidity 88    
Maximum Humidity 100    
Minimum Humidity 59    
Precipitation  
Precipitation 0.01 in - - ()
Sea Level Pressure  
Sea Level Pressure 29.72 in    
Wind  
Wind Speed 10 mph (WNW)    
Max Wind Speed 17 mph    
Max Gust Speed 23 mph    
Visibility 9 miles    
Events Rain    
Averages and records for this station are not official NWS values.
T = Trace of Precipitation, MM = Missing Value Source: NWS Daily Summary

Daily Weather History Graph

Daily Weather History Graph

Search for Another Location

Airport or City:

Trip Planner

Search our weather history database for the weather conditions in past years. The results will help you decide how hot, cold, wet, or windy it might be!

Date:

Astronomy

Oct. 06, 2013 Rise Set
Actual Time 7:19 AM AKDT 6:19 PM AKDT
Civil Twilight 6:38 AM AKDT 6:59 PM AKDT
Nautical Twilight 5:51 AM AKDT 7:46 PM AKDT
Astronomical Twilight 5:02 AM AKDT 8:35 PM AKDT
Moon 9:47 AM AKDT (10/6) 6:44 PM AKDT (10/6)
Length of Visible Light 12h 20m
Length of Day
10h 59m
Waxing Crescent, 4% of the Moon is Illuminated
Oct 6
Waxing Crescent
Oct 11
First Quarter
Oct 18
Full
Oct 26
Last Quarter
Nov 3
New

Hourly Weather History & Observations

Time (AKDT) Temp. Windchill Dew Point Humidity Pressure Visibility Wind Dir Wind Speed Gust Speed Precip Events Conditions
12:54 AM 46.0 °F 41.9 °F 43.0 °F 89% 29.89 in 10.0 mi WNW 8.1 mph - N/A   Overcast
1:54 AM 45.0 °F 41.2 °F 43.0 °F 93% 29.88 in 10.0 mi WNW 6.9 mph - 0.00 in Rain Light Rain
2:35 AM 44.6 °F 41.4 °F 42.8 °F 93% 29.84 in 10.0 mi WNW 5.8 mph - 0.01 in   Overcast
2:50 AM 44.6 °F 40.2 °F 42.8 °F 93% 29.84 in 10.0 mi WNW 8.1 mph - 0.01 in   Overcast
2:54 AM 44.1 °F 39.5 °F 43.0 °F 96% 29.84 in 10.0 mi WNW 8.1 mph - 0.01 in   Overcast
3:11 AM 44.6 °F 40.2 °F 42.8 °F 93% 29.83 in 10.0 mi WNW 8.1 mph - N/A   Overcast
3:54 AM 44.1 °F 39.5 °F 42.1 °F 93% 29.82 in 10.0 mi WNW 8.1 mph - N/A   Overcast
4:08 AM 44.6 °F 40.2 °F 42.8 °F 93% 29.81 in 10.0 mi WNW 8.1 mph - N/A   Scattered Clouds
4:17 AM 44.6 °F 40.2 °F 42.8 °F 93% 29.81 in 10.0 mi NW 8.1 mph - N/A   Mostly Cloudy
4:26 AM 44.6 °F 39.2 °F 42.8 °F 93% 29.80 in 4.0 mi WNW 10.4 mph - N/A   Mostly Cloudy
4:35 AM 44.6 °F 38.8 °F 42.8 °F 93% 29.80 in 2.5 mi WNW 11.5 mph - N/A   Overcast
4:42 AM 44.6 °F 39.2 °F 42.8 °F 93% 29.80 in 4.0 mi WNW 10.4 mph - N/A   Overcast
4:52 AM 42.8 °F 36.2 °F 42.8 °F 100% 29.79 in 1.8 mi WNW 12.7 mph - N/A   Overcast
4:54 AM 43.0 °F 36.8 °F 42.1 °F 97% 29.80 in 1.5 mi WNW 11.5 mph - N/A   Overcast
5:05 AM 42.8 °F 37.0 °F 42.8 °F 100% 29.79 in 3.0 mi WNW 10.4 mph - N/A   Overcast
5:36 AM 42.8 °F 37.0 °F 42.8 °F 100% 29.78 in 10.0 mi WNW 10.4 mph - N/A   Scattered Clouds
5:54 AM 43.0 °F 36.4 °F 42.1 °F 97% 29.78 in 9.0 mi WNW 12.7 mph - N/A   Mostly Cloudy
6:38 AM 42.8 °F 36.6 °F 41.0 °F 93% 29.76 in 10.0 mi WNW 11.5 mph - N/A   Mostly Cloudy
6:54 AM 43.0 °F 36.8 °F 42.1 °F 97% 29.76 in 10.0 mi WNW 11.5 mph - N/A   Mostly Cloudy
7:01 AM 42.8 °F 37.0 °F 42.8 °F 100% 29.75 in 10.0 mi WNW 10.4 mph - N/A   Scattered Clouds
7:38 AM 42.8 °F 35.8 °F 42.8 °F 100% 29.74 in 10.0 mi WNW 13.8 mph - N/A   Mostly Cloudy
7:54 AM 43.0 °F 36.0 °F 41.0 °F 93% 29.74 in 10.0 mi NW 13.8 mph 20.7 mph N/A   Scattered Clouds
8:42 AM 44.6 °F 38.1 °F 42.8 °F 93% 29.72 in 10.0 mi WNW 13.8 mph - N/A   Mostly Cloudy
8:54 AM 44.1 °F 37.4 °F 42.1 °F 93% 29.73 in 10.0 mi WNW 13.8 mph - N/A   Mostly Cloudy
9:05 AM 44.6 °F 38.1 °F 42.8 °F 93% 29.72 in 10.0 mi WNW 13.8 mph - N/A   Scattered Clouds
9:28 AM 44.6 °F 37.2 °F 42.8 °F 93% 29.71 in 10.0 mi WNW 17.3 mph 23.0 mph N/A   Mostly Cloudy
9:54 AM 46.0 °F 39.6 °F 42.1 °F 86% 29.71 in 10.0 mi NW 15.0 mph 21.9 mph N/A   Overcast
10:29 AM 46.4 °F 40.1 °F 42.8 °F 87% 29.69 in 10.0 mi WNW 15.0 mph 21.9 mph N/A   Scattered Clouds
10:54 AM 48.0 °F - 42.1 °F 80% 29.69 in 10.0 mi WNW 16.1 mph - N/A   Clear
11:54 AM 50.0 °F - 41.0 °F 71% 29.68 in 10.0 mi WNW 13.8 mph - N/A   Clear
12:54 PM 51.1 °F - 37.9 °F 61% 29.66 in 10.0 mi WNW 13.8 mph - N/A   Clear
1:54 PM 53.1 °F - 39.0 °F 59% 29.64 in 10.0 mi WNW 15.0 mph - N/A   Clear
2:54 PM 52.0 °F - 39.0 °F 61% 29.62 in 10.0 mi WNW 11.5 mph - N/A   Clear
3:54 PM 53.1 °F - 39.0 °F 59% 29.60 in 10.0 mi WNW 10.4 mph - N/A   Clear
4:54 PM 53.1 °F - 39.0 °F 59% 29.59 in 10.0 mi WNW 10.4 mph - N/A   Clear
5:54 PM 48.9 °F - 41.0 °F 74% 29.57 in 10.0 mi NW 8.1 mph - N/A   Clear
6:54 PM 44.1 °F 41.5 °F 41.0 °F 89% 29.57 in 10.0 mi NW 4.6 mph - N/A   Clear
7:54 PM 43.0 °F 38.2 °F 39.0 °F 86% 29.57 in 10.0 mi WNW 8.1 mph - N/A   Clear
8:54 PM 44.1 °F 37.7 °F 39.9 °F 85% 29.56 in 10.0 mi WNW 12.7 mph - N/A   Clear
9:54 PM 43.0 °F 38.2 °F 39.0 °F 86% 29.55 in 10.0 mi WNW 8.1 mph - N/A   Clear
10:54 PM 43.0 °F 36.8 °F 39.0 °F 86% 29.55 in 10.0 mi WNW 11.5 mph - N/A   Clear
11:54 PM 39.9 °F 35.1 °F 37.9 °F 93% 29.56 in 10.0 mi WNW 6.9 mph - N/A   Clear